SGSAT

Last updated on May 7, 2018, 12:15 a.m. UTC

1 42703U 98067LL  18126.44191986  .17722778  12425-4  13973-2 0  9990
2 42703  51.6180 185.5549 0005134 302.2194  57.7887 16.39284937 55666

Satellite is not in orbit.